Find Starlink 5019

NORAD ID: 55407 Int'l Des: 2023-014 Owner: SPXS Country: US Constellation: starlink operational
LEOCIRCULAR

現在のビュー

3D地球を読み込み中...

About Starlink 5019

Starlink 5019 (NORAD 55407) is a starlink constellation satellite (v1.5) launched Jan 31, 2023 by SPXS of US. It operates in LEO, CIRCULAR orbit with a mass of 305.00 kg.

次回通過

Passes for default location (London). Set your location on the main map for personalized predictions.

高度履歴

Loading altitude history...

軌道要素

1 55407U 23014S 26263.49811789 .00000390 00000-0 40529-4 0 9993
2 55407 69.9977 293.3639 0003702 269.1916 90.8819 14.98328683201236
Epoch: Sep 20, 2026 • Age: 17 hours

現在のステータス

高度 580.8 km
遠地点 / 近地点 N/A
速度 7.57 km/s
衛星直下点 -28.57°S, 49.17°E
打ち上げ日 Jan 31, 2023
運用期間 3.6 years
タイプ internet

技術仕様

分類 Payload
質量 305.00 kg
乾燥質量 290.00 kg
長さ 0.20 m
スパン 9.00 m
形状 ? Box + pan
製造者 SPXS
バスタイプ Starlink
フェーズステータス In Orbit
所有者/国 SPXS/US

Most Searched